This is the latest recevied weather packets stored in our database for station/object KO6TH-15. If no packets are shown the sender has not sent any weather packets the latest 10 day(s).
| Time | Temp. | Humidity | Pressure | Rain* | Wind** | Luminosity | Snow |
|---|---|---|---|---|---|---|---|
| 1778181260 | 25.56° C | 67% | 0 hPa | 0 mm | - | - | - |
| 1778180629 | 25.56° C | 67% | 0 hPa | 0 mm | - | - | - |
| 1778179999 | 25° C | 69% | 0 hPa | 0 mm | - | - | - |
| 1778179369 | 24.44° C | 69% | 0 hPa | 0 mm | - | - | - |
| 1778178740 | 25° C | 68% | 0 hPa | 0 mm | - | - | - |
| 1778178110 | 24.44° C | 69% | 0 hPa | 0 mm | - | - | - |
| 1778177480 | 24.44° C | 68% | 0 hPa | 0 mm | - | - | - |
| 1778176879 | 24.44° C | 70% | 0 hPa | 0 mm | - | - | - |
| 1778176249 | 23.33° C | 71% | 0 hPa | 0 mm | - | - | - |
| 1778175619 | 24.44° C | 71% | 0 hPa | 0 mm | - | - | - |
| 1778174989 | 23.89° C | 71% | 0 hPa | 0 mm | - | - | - |
| 1778174360 | 23.89° C | 66% | 0 hPa | 0 mm | - | - | - |
| 1778173730 | 22.78° C | 68% | 0 hPa | 0 mm | - | - | - |
| 1778173100 | 22.22° C | 69% | 0 hPa | 0 mm | - | - | - |
| 1778172469 | 22.22° C | 70% | 0 hPa | 0 mm | - | - | - |
| 1778171839 | 21.11° C | 74% | 0 hPa | 0 mm | - | - | - |
| 1778171210 | 21.67° C | 73% | 0 hPa | 0 mm | - | - | - |
| 1778170610 | 20° C | 77% | 0 hPa | 0 mm | - | - | - |
| 1778169979 | 19.44° C | 78% | 0 hPa | 0 mm | - | - | - |
| 1778169380 | 18.89° C | 82% | 0 hPa | 0 mm | - | - | - |
| 1778168750 | 18.33° C | 84% | 0 hPa | 0 mm | - | - | - |
| 1778168119 | 18.33° C | 91% | 0 hPa | 0 mm | - | - | - |
| 1778167520 | 17.78° C | 95% | 0 hPa | 0 mm | - | - | - |
| 1778166919 | 17.22° C | 97% | 0 hPa | 0 mm | - | - | - |
| 1778166289 | 17.22° C | 99% | 0 hPa | 0 mm | - | - | - |
* Rain latest hour (hover to see other rain measurements)
** Current wind speed in m/s (hover to see current wind gust speed)